This is the latest recevied weather packets stored in our database for station/object KB2AHZ. If no packets are shown the sender has not sent any weather packets the latest 10 day(s).
| Time | Temp. | Humidity | Pressure | Rain* | Wind** | Luminosity | Snow |
|---|---|---|---|---|---|---|---|
| 1777578523 | 22.78° C | 46% | 1009.5 hPa | 0 mm | - | 464 W/m² | - |
| 1777578218 | 22.22° C | 46% | 1009.7 hPa | 0 mm | - | 731 W/m² | - |
| 1777577913 | 21.67° C | 47% | 1009.6 hPa | 0 mm | - | 791 W/m² | - |
| 1777577604 | 21.67° C | 46% | 1009.9 hPa | 0 mm | - | 772 W/m² | - |
| 1777577301 | 21.67° C | 48% | 1009.7 hPa | 0 mm | - | 364 W/m² | - |
| 1777576997 | 21.67° C | 46% | 1009.5 hPa | 0 mm | - | 767 W/m² | - |
| 1777576694 | 21.67° C | 47% | 1009.6 hPa | 0 mm | - | 779 W/m² | - |
| 1777576393 | 21.67° C | 44% | 1009.7 hPa | 0 mm | - | 784 W/m² | - |
| 1777576090 | 22.22° C | 50% | 1009.6 hPa | 0 mm | - | 809 W/m² | - |
| 1777575785 | 21.67° C | 47% | 1009.6 hPa | 0 mm | - | 813 W/m² | - |
| 1777575482 | 21.67° C | 46% | 1009.7 hPa | 0 mm | - | 831 W/m² | - |
| 1777575178 | 21.67° C | 46% | 1009.7 hPa | 0 mm | - | 841 W/m² | - |
| 1777574874 | 21.67° C | 51% | 1009.3 hPa | 0 mm | - | 843 W/m² | - |
| 1777574572 | 21.67° C | 47% | 1009.4 hPa | 0 mm | - | 858 W/m² | - |
| 1777574268 | 22.22° C | 48% | 1009.4 hPa | 0 mm | - | 863 W/m² | - |
| 1777573963 | 21.67° C | 47% | 1009.7 hPa | 0 mm | - | 867 W/m² | - |
| 1777573658 | 21.67° C | 53% | 1009.4 hPa | 0 mm | - | 884 W/m² | - |
| 1777573355 | 21.67° C | 50% | 1009.4 hPa | 0 mm | - | 885 W/m² | - |
| 1777573050 | 21.67° C | 54% | 1009.6 hPa | 0 mm | - | 904 W/m² | - |
| 1777572747 | 21.11° C | 51% | 1009.3 hPa | 0 mm | - | 908 W/m² | - |
| 1777572441 | 21.11° C | 51% | 1009.5 hPa | 0 mm | - | 901 W/m² | - |
| 1777572138 | 21.11° C | 52% | 1009.5 hPa | 0 mm | - | 908 W/m² | - |
| 1777571832 | 21.11° C | 58% | 1009.8 hPa | 0 mm | - | 910 W/m² | - |
| 1777571524 | 20.56° C | 55% | 1009.8 hPa | 0 mm | - | 916 W/m² | - |
| 1777571221 | 20.56° C | 57% | 1009.8 hPa | 0 mm | - | 916 W/m² | - |
* Rain latest hour (hover to see other rain measurements)
** Current wind speed in m/s (hover to see current wind gust speed)